STARLINK-5151, 54066

Orbit data source: Space-Track

STARLINK-5151, 54066 is a payload satellite owned by SpaceX/Seattle (US) in LEO that was launched on Thu, 20 Oct 2022 UTC via an FALCON 9 launch vehicle from the Air Force Eastern Test Range (AFETR). Payload-class satellites include a variety of spacecraft equipped with specific instruments for various scientific and technological missions. These include communications satellites like Starlink; space stations such as the ISS; scientific satellites like the Hubble; Earth observation satellites from companies like Planet Labs, Umbra, and HawkEye 360; GPS; miniature CubeSats for education and research; and military/defense satellites.

Loading next visibility...
Identifier
54066, 2022-136R
Orbit
LEO
Country
Flag of USUS
Related business
Manufacturer
SpaceX/Seattle
Mission
Operational Commercial Communications
Bus & Motor
STARLINK, Unknown motor
Mass
305 kg wet, ~290 kg dry
Launch date (UTC)
2022-10-20 (3 years ago)
Launch vehicle
FALCON 9
Launch site
Air Force Eastern Test Range (AFETR)
Object type
Payload
Rocket body
Debris
Shape & HBR
Box + 1 Pan, 10.1 m
Radar Cross Section
13.562 m², Large (>1 m²)

Expand to show TLE details & history
Last TLE update: 1 day ago

TLE from 1 day ago
0 STARLINK-5151
1 54066U 22136R   25303.05199335  .00000455  00000-0  46655-4 0  9997
2 54066  53.2151 210.4759 0001418  88.7025 271.4130 15.08837961167125
Epoch: 2025-10-30T01:14Z
TLE epoch observation values (Epoch: 2025-10-30T01:14:52.225Z)
Latitude
0.00001°
Longitude
153.14199°
Altitude
540.623 km
Speed
7.593 km/s
True Right ascension
14h 01m 54s
True Declination
0° 00' 00"
Sunlit
Object was in daylight at epoch
Visualization orbit readout
Latitude
Unknown
Longitude
Unknown
Altitude
Unknown
Speed
Unknown
Apparent Right ascension
Unknown
Apparent Declination
Unknown
Sunlit
N/A
Visualization observer readout
Local Sidereal Time
20:32:20
Azimuth
Unknown
Elevation
Unknown
Doppler factor
Unknown
Orbital elements
Apogee altitude
540.976 km
Perigee altitude
539.014 km
Semi-major axis
6,918.132 km
Eccentricity
0.00014
Inclination
53.2151°
RAAN
210.4759°
Arg. of periapsis
88.7025°
True anomaly
271.39676°
Mean anomaly
271.413°
Eccentric anomaly
271.40488°
Mean motion
3.7719 °/min
Orbital period
95.44 mins
BSTAR
0.000046655
Loading maneuver chart data...
Computing Atmospheric mass density...
Loading historical data...
Loading historical data...
Loading historical data...
Loading historical data...
Loading historical data...
Loading historical data...
Loading historical data...

Documentation

Showing up to 5 results
|